Volver al catálogo

STARLINK-11643

ActivoComunicacionesVLEO
NORAD 63192·PAYLOAD·🇺🇸 United States

Lanzado Mar 13, 2025 desde Cape Canaveral Space Force Station

Loading…

Próximos Pases (próximas 24 horas)

TLE

ActualizadoSource: CelesTrak SupGP

Época: Sep 15, 2026, 03:57 UTC

1 63192C 25048K   26258.16506944 -.00039700  00000+0 -30814-3 0  2585
2 63192  43.0005 257.8102 0001496 254.9799 356.3631 15.70874126    14

Sigue STARLINK-11643 en tiempo real con AllMySat

Download on the App Store